User: anonymous   Login
Location: Unspecified
(0.0000°N, 0.0000°E)
Time: 02:41:00
(UTC+02:00)
Language:

Iridium 4 Rocket - Orbit

View from above orbital plane
View from above orbital plane
View from above satellite
View from above satellite

Ground track
Ground track

The orbit data is extracted from the following two-line orbital elements,

1 24797U 97020F   18114.41557712  .00000092  00000-0  14502-4 0  9991
2 24797  86.8983 239.3435 0225113   0.2394  59.4969 14.44049647102855
Epoch (UTC): 24 April 2018 09:58:25
Eccentricity: 0.0225113
inclination: 86.8983°
perigee height: 585 km
apogee height: 905 km
right ascension of ascending node: 239.3435°
argument of perigee: 0.2394°
revolutions per day: 14.44049647
mean anomaly at epoch: 59.4969°
orbit number at epoch: 10285

The dashed part of the orbit path shows where the satellite is in the earth's shadow,  

DLR